EW4792 Weather Reports


Display with metric or nautical units.
time (UTC)temp
F
wind
direction
speed
MPH
gust
MPH
rain 1hr
in
rain 24hr
in
rain mn
in
humidity
%
barometer
mb
20260906135639 80 151 6.0 8.0 0.00 0.00 0.00 86 1015.9
20260906135135 80 145 6.0 8.0 0.00 0.00 0.00 86 1015.9
20260906134627 80 150 5.0 7.0 0.00 0.00 0.00 85 1015.6
20260906134122 80 153 5.0 8.0 0.00 0.00 0.00 85 1015.6
20260906133634 80 147 4.0 8.0 0.00 0.00 0.00 85 1015.5
20260906133126 80 131 6.0 7.0 0.00 0.00 0.00 86 1015.6
20260906132623 80 134 5.0 6.0 0.00 0.00 0.00 85 1015.4
20260906131548 79 101 5.0 6.0 0.00 0.00 0.00 85 1015.3
20260906131151 79 134 5.0 7.0 0.00 0.00 0.00 85 1015.2
20260906130629 79 132 5.0 7.0 0.00 0.00 0.00 85 1015.2
20260906130107 79 134 6.0 7.0 0.00 0.00 0.00 85 1015.1
20260906125604 79 111 5.0 6.0 0.00 0.00 0.00 85 1015.1
20260906124637 79 103 6.0 7.0 0.00 0.00 0.00 85 1014.7
20260906124137 80 181 4.0 7.0 0.00 0.00 0.00 85 1014.9
20260906123626 79 181 5.0 9.0 0.00 0.00 0.00 85 1014.8
20260906123101 79 199 7.0 8.0 0.00 0.00 0.00 85 1015.0
20260906122555 79 184 5.0 9.0 0.00 0.00 0.00 84 1014.8
20260906122106 80 181 7.0 9.0 0.00 0.00 0.00 84 1014.7
20260906121600 80 185 7.0 9.0 0.00 0.00 0.00 84 1014.6
20260906121058 80 187 7.0 12.0 0.00 0.00 0.00 84 1014.4
20260906120558 80 188 9.0 12.0 0.00 0.00 0.00 84 1014.4
20260906120100 80 187 6.0 9.0 0.00 0.00 0.00 83 1014.3
20260906115555 80 165 8.0 12.0 0.00 0.00 0.00 83 1014.4
20260906115059 80 176 9.0 12.0 0.00 0.00 0.00 83 1014.4
20260906114557 80 189 9.0 11.0 0.00 0.00 0.00 83 1014.2
20260906114055 80 95 4.0 6.0 0.00 0.00 0.00 82 1013.7
20260906113557 81 98 4.0 6.0 0.00 0.00 0.00 82 1013.7
20260906113058 81 159 5.0 6.0 0.00 0.00 0.00 82 1013.8
20260906112554 81 185 4.0 6.0 0.00 0.00 0.00 82 1013.7
20260906112052 81 193 4.0 6.0 0.00 0.00 0.00 82 1013.6
20260906111550 81 211 2.0 6.0 0.00 0.00 0.00 82 1013.5
20260906111048 81 209 2.0 5.0 0.00 0.00 0.00 81 1013.5
20260906110545 81 209 4.0 5.0 0.00 0.00 0.00 81 1013.6
20260906110044 81 209 2.0 5.0 0.00 0.00 0.00 81 1013.6
20260906105543 81 209 3.0 6.0 0.00 0.00 0.00 81 1013.5
20260906105055 81 209 5.0 6.0 0.00 0.00 0.00 81 1013.3
20260906104609 81 209 4.0 6.0 0.00 0.00 0.00 81 1013.2
20260906104124 81 209 3.0 4.0 0.00 0.00 0.00 81 1013.2
20260906103622 81 209 3.0 6.0 0.00 0.00 0.00 81 1013.2
20260906103119 81 209 4.0 7.0 0.00 0.00 0.00 81 1013.2
20260906102556 81 209 5.0 7.0 0.00 0.00 0.00 81 1013.3
20260906102200 81 225 4.0 6.0 0.00 0.00 0.00 81 1013.1
20260906101636 81 237 0.0 0.0 0.00 0.00 0.00 81 1013.1
20260906101140 81 237 0.0 2.0 0.00 0.00 0.00 81 1013.1
20260906100620 81 237 0.0 5.0 0.00 0.00 0.00 81 1013.2
20260906100158 81 237 1.0 5.0 0.00 0.00 0.00 81 1013.1
20260906095546 81 237 3.0 5.0 0.00 0.00 0.00 81 1013.4
20260906095047 81 237 3.0 5.0 0.00 0.00 0.00 81 1013.2
20260906094651 81 237 3.0 5.0 0.00 0.00 0.00 81 1013.2
20260906094132 81 237 2.0 5.0 0.00 0.00 0.00 81 1013.3
20260906093132 81 237 2.0 5.0 0.00 0.00 0.00 80 1013.4
20260906092624 81 238 0.0 5.0 0.00 0.00 0.00 80 1013.2
20260906092118 81 230 2.0 5.0 0.00 0.00 0.00 80 1013.3
20260906091617 81 228 3.0 7.0 0.00 0.00 0.00 80 1013.4
20260906091126 81 228 5.0 6.0 0.00 0.00 0.00 80 1013.6
20260906090618 81 222 4.0 5.0 0.00 0.00 0.00 80 1013.5
20260906090129 81 223 2.0 5.0 0.00 0.00 0.00 80 1013.5
20260906085628 81 212 2.0 3.0 0.00 0.00 0.00 80 1013.6
20260906085121 81 212 1.0 6.0 0.00 0.00 0.00 80 1013.7
20260906084629 81 212 3.0 6.0 0.00 0.00 0.00 80 1013.7
20260906084131 81 211 3.0 6.0 0.00 0.00 0.00 80 1013.7
20260906083628 81 207 4.0 6.0 0.00 0.00 0.00 80 1013.6
20260906083126 81 220 5.0 7.0 0.00 0.00 0.00 80 1013.8
20260906082639 81 233 5.0 7.0 0.00 0.00 0.00 80 1013.7
20260906082136 81 218 5.0 7.0 0.00 0.00 0.00 79 1013.6
20260906081638 81 201 5.0 8.0 0.00 0.00 0.00 80 1013.7
20260906081136 81 213 5.0 7.0 0.00 0.00 0.00 80 1013.8
20260906080614 81 195 5.0 8.0 0.00 0.00 0.00 79 1013.9
20260906080113 81 211 3.0 8.0 0.00 0.00 0.00 79 1013.9
20260906075625 81 157 4.0 8.0 0.00 0.00 0.00 79 1014.1
20260906075122 81 214 4.0 8.0 0.00 0.00 0.00 78 1014.1
20260906074638 82 199 3.0 7.0 0.00 0.00 0.00 79 1014.2
20260906074049 82 187 4.0 9.0 0.00 0.00 0.00 78 1014.3
20260906073544 82 182 6.0 10.0 0.00 0.00 0.00 79 1014.4
20260906073130 82 182 6.0 10.0 0.00 0.00 0.00 79 1014.3
20260906072628 82 199 6.0 9.0 0.00 0.00 0.00 78 1014.3
20260906072142 82 180 6.0 9.0 0.00 0.00 0.00 78 1014.4
20260906071616 82 196 7.0 10.0 0.00 0.00 0.00 78 1014.5
20260906071113 82 188 8.0 10.0 0.00 0.00 0.00 78 1014.4
20260906070600 82 180 7.0 11.0 0.00 0.00 0.00 78 1014.5
20260906070059 82 177 8.0 11.0 0.00 0.00 0.00 77 1014.7
20260906065612 83 184 8.0 11.0 0.00 0.00 0.00 77 1014.7
20260906065046 83 172 8.0 12.0 0.00 0.00 0.00 78 1014.8
20260906064542 83 197 9.0 12.0 0.00 0.00 0.00 77 1014.7
20260906064057 83 182 10.0 12.0 0.00 0.00 0.00 77 1014.7
20260906063552 83 182 9.0 13.0 0.00 0.00 0.00 77 1014.9
20260906063046 83 182 11.0 14.0 0.00 0.00 0.00 76 1014.9
20260906062543 83 172 10.0 14.0 0.00 0.00 0.00 76 1014.8
20260906062057 83 174 9.0 12.0 0.00 0.00 0.00 76 1015.1
20260906061553 83 178 9.0 12.0 0.00 0.00 0.00 75 1015.1
20260906061047 83 169 10.0 12.0 0.00 0.00 0.00 75 1015.2
20260906060603 84 168 10.0 13.0 0.00 0.00 0.00 75 1015.2
20260906060054 84 179 9.0 13.0 0.00 0.00 0.00 75 1015.2
20260906055553 84 186 9.0 13.0 0.00 0.00 0.00 74 1015.1
20260906055048 84 186 11.0 16.0 0.00 0.00 0.00 73 1015.0
20260906054544 84 182 11.0 16.0 0.00 0.00 0.00 74 1014.9
20260906054057 84 194 11.0 18.0 0.00 0.00 0.00 74 1015.1
20260906053612 84 184 13.0 20.0 0.00 0.00 0.00 73 1014.9
20260906053043 84 172 11.0 15.0 0.00 0.00 0.00 73 1015.0
20260906052540 84 192 10.0 14.0 0.00 0.00 0.00 74 1015.0
20260906052054 84 188 10.0 14.0 0.00 0.00 0.00 73 1015.0
20260906051610 85 189 11.0 14.0 0.00 0.00 0.00 74 1015.0
20260906051044 85 176 10.0 14.0 0.00 0.00 0.00 74 1015.1
20260906050540 85 188 10.0 18.0 0.00 0.00 0.00 73 1015.1
20260906050054 85 189 12.0 18.0 0.00 0.00 0.00 74 1015.1
20260906045545 85 168 11.0 15.0 0.00 0.00 0.00 73 1015.0
20260906045133 85 183 12.0 18.0 0.00 0.00 0.00 73 1015.0
20260906044625 85 185 13.0 18.0 0.00 0.00 0.00 72 1015.0
20260906043549 85 190 13.0 16.0 0.00 0.00 0.00 72 1015.0
20260906043050 86 186 13.0 21.0 0.00 0.00 0.00 72 1015.0
20260906042610 86 172 14.0 21.0 0.00 0.00 0.00 72 1015.1
20260906042113 86 163 14.0 23.0 0.00 0.00 0.00 71 1015.2
20260906041621 86 167 15.0 23.0 0.00 0.00 0.00 72 1015.1
20260906040555 86 167 12.0 15.0 0.00 0.00 0.00 70 1014.9
20260906040155 86 161 12.0 15.0 0.00 0.00 0.00 70 1014.9
20260906035634 87 168 12.0 15.0 0.00 0.00 0.00 70 1014.9
20260906035127 87 166 13.0 16.0 0.00 0.00 0.00 69 1014.8
20260906034632 87 163 14.0 19.0 0.00 0.00 0.00 69 1014.7
20260906033557 87 178 12.0 18.0 0.00 0.00 0.00 69 1014.7
20260906033049 87 174 12.0 19.0 0.00 0.00 0.00 68 1014.6
20260906032607 87 161 13.0 19.0 0.00 0.00 0.00 67 1014.7
20260906032100 87 154 14.0 16.0 0.00 0.00 0.00 68 1014.7
20260906031559 88 159 14.0 22.0 0.00 0.00 0.00 67 1014.5
20260906031111 88 160 15.0 22.0 0.00 0.00 0.00 67 1014.3
20260906030625 88 161 14.0 21.0 0.00 0.00 0.00 66 1014.1
20260906030051 88 178 16.0 21.0 0.00 0.00 0.00 65 1013.9
20260906025554 89 182 17.0 20.0 0.00 0.00 0.00 64 1013.7
20260906025048 89 141 12.0 18.0 0.00 0.00 0.00 65 1013.5
20260906024601 89 149 13.0 18.0 0.00 0.00 0.00 63 1013.5
20260906024055 89 141 12.0 15.0 0.00 0.00 0.00 63 1013.4
20260906023558 89 153 11.0 16.0 0.00 0.00 0.00 61 1013.4
20260906023052 89 139 13.0 16.0 0.00 0.00 0.00 62 1013.2
20260906022556 89 138 12.0 16.0 0.00 0.00 0.00 61 1013.0
20260906022047 90 145 11.0 15.0 0.00 0.00 0.00 63 1012.8
20260906021558 90 143 11.0 15.0 0.00 0.00 0.00 63 1012.8
20260906021106 90 136 11.0 14.0 0.00 0.00 0.00 61 1012.7
20260906020625 90 145 12.0 15.0 0.00 0.00 0.00 61 1012.7
20260906020136 90 157 11.0 15.0 0.00 0.00 0.00 62 1012.8
20260906015628 90 151 13.0 19.0 0.00 0.00 0.00 61 1012.7
20260906015123 90 152 13.0 21.0 0.00 0.00 0.00 60 1012.7
20260906014624 90 137 14.0 22.0 0.00 0.00 0.00 58 1012.6
20260906014120 91 148 17.0 22.0 0.00 0.00 0.00 59 1012.6
20260906013632 91 140 15.0 21.0 0.00 0.00 0.00 58 1012.5
20260906013049 91 136 14.0 20.0 0.00 0.00 0.00 57 1012.6
20260906012554 91 130 12.0 19.0 0.00 0.00 0.00 56 1012.4
20260906012059 91 127 11.0 15.0 0.00 0.00 0.00 54 1012.3
20260906011635 91 118 6.0 10.0 0.00 0.00 0.00 54 1012.4
20260906011134 92 105 3.0 4.0 0.00 0.00 0.00 53 1012.2
20260906010633 92 113 3.0 5.0 0.00 0.00 0.00 51 1012.2
20260906010109 92 107 3.0 5.0 0.00 0.00 0.00 50 1012.1
20260906005554 93 113 4.0 5.0 0.00 0.00 0.00 50 1012.0
20260906005052 93 109 3.0 5.0 0.00 0.00 0.00 50 1012.0
20260906004556 93 97 2.0 5.0 0.00 0.00 0.00 50 1012.0
20260906004059 93 134 3.0 6.0 0.00 0.00 0.00 51 1012.2
20260906003542 93 138 5.0 6.0 0.00 0.00 0.00 49 1012.0
20260906003138 93 131 5.0 7.0 0.00 0.00 0.00 50 1011.9
20260906002624 94 146 5.0 7.0 0.00 0.00 0.00 51 1012.0
20260906002123 94 142 5.0 6.0 0.00 0.00 0.00 47 1012.0
20260906001636 94 138 4.0 8.0 0.00 0.00 0.00 50 1012.1
20260906001110 94 133 6.0 10.0 0.00 0.00 0.00 47 1012.0
20260906000609 94 115 7.0 10.0 0.00 0.00 0.00 48 1012.0
20260906000106 94 120 7.0 12.0 0.00 0.00 0.00 48 1012.0
20260905235605 94 141 7.0 13.0 0.00 0.00 0.00 49 1012.0
20260905235049 94 142 9.0 12.0 0.00 0.00 0.00 47 1011.9
20260905234601 94 128 9.0 13.0 0.00 0.00 0.00 47 1012.0
20260905234107 94 129 9.0 15.0 0.00 0.00 0.00 48 1011.9
20260905233608 94 103 11.0 15.0 0.00 0.00 0.00 47 1011.9
20260905233047 94 143 5.0 9.0 0.00 0.00 0.00 48 1011.9
20260905232553 94 151 6.0 7.0 0.00 0.00 0.00 45 1011.9
20260905232157 94 144 3.0 7.0 0.00 0.00 0.00 44 1011.9
20260905231634 94 148 1.0 10.0 0.00 0.00 0.00 46 1011.9
20260905231127 94 147 8.0 10.0 0.00 0.00 0.00 51 1011.9
20260905230604 93 150 8.0 10.0 0.00 0.00 0.00 48 1011.9
20260905225601 93 158 4.0 9.0 0.00 0.00 0.00 49 1012.0
20260905225104 93 141 6.0 9.0 0.00 0.00 0.00 48 1012.0
20260905224121 93 234 2.0 5.0 0.00 0.00 0.00 53 1012.0
20260905223617 93 217 1.0 2.0 0.00 0.00 0.00 54 1012.1
20260905223058 93 220 0.0 4.0 0.00 0.00 0.00 50 1012.1
20260905222602 93 207 0.0 5.0 0.00 0.00 0.00 53 1012.0
20260905222114 93 217 4.0 6.0 0.00 0.00 0.00 47 1012.3
20260905221610 92 182 5.0 7.0 0.00 0.00 0.00 50 1012.2
20260905221134 93 178 5.0 8.0 0.00 0.00 0.00 53 1012.3
20260905220623 93 176 5.0 13.0 0.00 0.00 0.00 48 1012.3
20260905220116 93 100 2.0 13.0 0.00 0.00 0.00 43 1012.4
20260905215550 93 122 6.0 11.0 0.00 0.00 0.00 44 1012.3
20260905215149 93 131 7.0 11.0 0.00 0.00 0.00 46 1012.3
20260905214613 93 128 5.0 10.0 0.00 0.00 0.00 48 1012.3
20260905214050 92 140 7.0 10.0 0.00 0.00 0.00 48 1012.4
20260905213551 93 155 6.0 11.0 0.00 0.00 0.00 49 1012.3
20260905213051 93 161 9.0 11.0 0.00 0.00 0.00 51 1012.4
20260905212607 94 188 2.0 4.0 0.00 0.00 0.00 50 1012.5
20260905212111 93 308 1.0 7.0 0.00 0.00 0.00 46 1012.4
20260905211125 93 99 6.0 9.0 0.00 0.00 0.00 48 1012.7
20260905210124 92 190 0.0 2.0 0.00 0.00 0.00 49 1012.5
20260905205624 92 172 1.0 5.0 0.00 0.00 0.00 49 1012.6
20260905205133 92 170 2.0 5.0 0.00 0.00 0.00 48 1012.6
20260905204054 92 116 5.0 12.0 0.00 0.00 0.00 51 1012.7
20260905203611 91 175 9.0 14.0 0.00 0.00 0.00 50 1012.8
20260905203112 91 165 11.0 14.0 0.00 0.00 0.00 52 1012.9
20260905202629 92 132 1.0 4.0 0.00 0.00 0.00 51 1013.2
20260905202124 91 170 0.0 12.0 0.00 0.00 0.00 53 1013.3
20260905201629 91 139 6.0 12.0 0.00 0.00 0.00 53 1013.4
20260905201126 91 130 9.0 13.0 0.00 0.00 0.00 55 1013.5
20260905200608 91 145 11.0 13.0 0.00 0.00 0.00 56 1013.5
20260905200105 91 176 8.0 12.0 0.00 0.00 0.00 54 1013.4
20260905195604 91 123 8.0 12.0 0.00 0.00 0.00 53 1013.6
20260905195108 90 195 3.0 6.0 0.00 0.00 0.00 56 1013.6
20260905194603 90 125 3.0 7.0 0.00 0.00 0.00 56 1013.8
20260905193547 90 155 6.0 10.0 0.00 0.00 0.00 56 1014.0
20260905193153 89 165 1.0 4.0 0.00 0.00 0.00 59 1014.0
20260905192626 89 172 0.0 6.0 0.00 0.00 0.00 60 1014.1
20260905192115 89 170 1.0 8.0 0.00 0.00 0.00 60 1014.1
20260905191548 89 238 5.0 10.0 0.00 0.00 0.00 63 1014.3
20260905191111 89 223 7.0 10.0 0.00 0.00 0.00 61 1014.5
20260905190624 89 211 1.0 4.0 0.00 0.00 0.00 64 1014.5
20260905190136 88 182 1.0 7.0 0.00 0.00 0.00 64 1014.6
20260905185648 88 176 4.0 8.0 0.00 0.00 0.00 64 1014.8
20260905185134 88 184 6.0 8.0 0.00 0.00 0.00 66 1014.9
20260905184612 88 165 4.0 9.0 0.00 0.00 0.00 65 1015.0
20260905184125 88 193 3.0 10.0 0.00 0.00 0.00 64 1015.1
20260905183603 88 201 2.0 10.0 0.00 0.00 0.00 65 1015.2
20260905182545 88 141 4.0 10.0 0.00 0.00 0.00 67 1015.3
20260905182104 87 157 5.0 10.0 0.00 0.00 0.00 66 1015.2
20260905181603 87 161 4.0 8.0 0.00 0.00 0.00 67 1015.4
20260905181048 87 180 2.0 8.0 0.00 0.00 0.00 67 1015.5
20260905180549 87 186 6.0 8.0 0.00 0.00 0.00 68 1015.6
20260905180103 87 195 5.0 7.0 0.00 0.00 0.00 68 1015.5
20260905175540 87 215 5.0 9.0 0.00 0.00 0.00 68 1015.5
20260905175059 87 203 7.0 9.0 0.00 0.00 0.00 70 1015.7
20260905174543 87 213 4.0 9.0 0.00 0.00 0.00 69 1015.8
20260905174131 86 226 6.0 9.0 0.00 0.00 0.00 69 1015.9
20260905173539 86 251 4.0 7.0 0.00 0.00 0.00 69 1016.0
20260905173128 86 201 5.0 8.0 0.00 0.00 0.00 71 1016.0
20260905172621 86 205 6.0 8.0 0.00 0.00 0.00 72 1016.0
20260905172108 85 173 2.0 9.0 0.00 0.00 0.00 72 1015.9
20260905171605 85 186 5.0 9.0 0.00 0.00 0.00 72 1016.1
20260905171111 85 193 6.0 11.0 0.00 0.00 0.00 72 1016.2
20260905170624 85 185 7.0 11.0 0.00 0.00 0.00 72 1016.2
20260905165638 85 202 7.0 9.0 0.00 0.00 0.00 75 1016.2
20260905165121 85 196 7.0 9.0 0.00 0.00 0.00 74 1016.2
20260905164620 84 186 7.0 9.0 0.00 0.00 0.00 75 1016.2
20260905164111 84 180 7.0 9.0 0.00 0.00 0.00 77 1016.2
20260905163137 84 211 5.0 10.0 0.00 0.00 0.00 77 1016.2
20260905162631 84 198 8.0 10.0 0.00 0.00 0.00 78 1016.2
20260905162133 84 201 7.0 10.0 0.00 0.00 0.00 78 1016.1
20260905161637 84 211 6.0 9.0 0.00 0.00 0.00 79 1016.2
20260905161136 84 197 5.0 9.0 0.00 0.00 0.00 79 1016.3
20260905160547 83 174 7.0 10.0 0.00 0.00 0.00 79 1016.3
20260905160152 83 186 6.0 10.0 0.00 0.00 0.00 80 1016.3
20260905155630 83 179 6.0 9.0 0.00 0.00 0.00 81 1016.4
20260905155130 83 208 7.0 9.0 0.00 0.00 0.00 81 1016.4
20260905154628 83 223 7.0 10.0 0.00 0.00 0.00 82 1016.4
20260905153637 82 217 8.0 10.0 0.00 0.00 0.00 82 1016.2
20260905153046 82 224 8.0 10.0 0.00 0.00 0.00 83 1016.2
20260905152651 82 209 8.0 10.0 0.00 0.00 0.00 83 1016.2
20260905151637 82 158 5.0 7.0 0.00 0.00 0.00 85 1016.2
20260905151136 81 163 2.0 6.0 0.00 0.00 0.00 85 1016.3
20260905150609 81 163 2.0 6.0 0.00 0.00 0.00 86 1016.4
20260905145617 81 199 3.0 7.0 0.00 0.00 0.00 86 1016.2
20260905145115 81 139 4.0 10.0 0.00 0.00 0.00 86 1016.2
20260905144607 81 151 6.0 10.0 0.00 0.00 0.00 87 1016.1
20260905144106 81 145 5.0 7.0 0.00 0.00 0.00 87 1016.2
20260905143604 81 144 5.0 7.0 0.00 0.00 0.00 87 1016.1
20260905143122 80 144 6.0 7.0 0.00 0.00 0.00 88 1016.2
20260905142635 80 141 6.0 7.0 0.00 0.00 0.00 88 1016.2
20260905142048 80 159 2.0 6.0 0.00 0.00 0.00 88 1016.2
20260905141547 80 147 3.0 6.0 0.00 0.00 0.00 88 1016.2
20260905141106 80 147 5.0 6.0 0.00 0.00 0.00 88 1016.2
20260905140619 80 148 4.0 7.0 0.00 0.00 0.00 88 1016.0